Marion Regional, IL

10:10 AM CDT on April 24, 2017 (GMT -0500)
Williamson County Regional

Weather History for KMWA - March, 2014

Change the Weather History Date:

Thursday, March 27, 2014

  Actual Average Record
Temperature  
Mean Temperature 52 °F -  
Max Temperature 62 °F 58 °F 80 °F (2007)
Min Temperature 42 °F 35 °F 23 °F (1969)
Degree Days  
Heating Degree Days 13    
Growing Degree Days 2 (Base 50)    
Moisture  
Dew Point 37 °F    
Average Humidity 60    
Maximum Humidity 88    
Minimum Humidity 32    
Precipitation  
Precipitation 0.00 in - - ()
Sea Level Pressure  
Sea Level Pressure 29.88 in    
Wind  
Wind Speed 15 mph (South)    
Max Wind Speed 28 mph    
Max Gust Speed 40 mph    
Visibility 12 miles    
Events Rain    
Averages and records for this station are not official NWS values.
T = Trace of Precipitation, MM = Missing Value Source: NWS Daily Summary

Daily Weather History Graph

Daily Weather History Graph

Search for Another Location

Airport or City:

Trip Planner

Search our weather history database for the weather conditions in past years. The results will help you decide how hot, cold, wet, or windy it might be!

Date:

Astronomy

Mar. 27, 2014 Rise Set
Actual Time 6:48 AM CDT 7:14 PM CDT
Civil Twilight 6:22 AM CDT 7:40 PM CDT
Nautical Twilight 5:51 AM CDT 8:11 PM CDT
Astronomical Twilight 5:20 AM CDT 8:43 PM CDT
Moon 4:36 AM CDT (3/27) 4:04 PM CDT (3/27)
Length of Visible Light 13h 18m
Length of Day
12h 25m
Waning Crescent, 13% of the Moon is Illuminated
Mar 27
Waning Crescent
Mar 30
New
Apr 7
First Quarter
Apr 15
Full
Apr 22
Last Quarter

Hourly Weather History & Observations

Time (CDT) Temp. Windchill Dew Point Humidity Pressure Visibility Wind Dir Wind Speed Gust Speed Precip Events Conditions
12:15 AM 44.6 °F 40.7 °F 19.4 °F 37% 30.10 in 10.0 mi SSE 6.9 mph - N/A   Mostly Cloudy
12:35 AM 46.4 °F 42.4 °F 17.6 °F 32% 30.08 in 10.0 mi SSE 8.1 mph - N/A   Overcast
1:15 AM 46.4 °F 40.1 °F 19.4 °F 34% 30.07 in 10.0 mi South 15.0 mph - N/A   Light Drizzle
1:35 AM 44.6 °F 39.2 °F 26.6 °F 49% 30.05 in 10.0 mi SSE 10.4 mph 16.1 mph N/A Rain Light Rain
1:55 AM 44.6 °F 38.8 °F 28.4 °F 53% 30.06 in 10.0 mi South 11.5 mph - N/A   Drizzle
2:15 AM 42.8 °F 38.0 °F 28.4 °F 57% 30.03 in 10.0 mi SE 8.1 mph - N/A   Overcast
2:35 AM 42.8 °F 37.0 °F 28.4 °F 57% 30.03 in 10.0 mi SSE 10.4 mph - N/A   Overcast
2:55 AM 44.6 °F 39.7 °F 28.4 °F 53% 30.02 in 10.0 mi South 9.2 mph - N/A   Overcast
3:15 AM 44.6 °F 39.7 °F 28.4 °F 53% 30.02 in 10.0 mi SSE 9.2 mph - N/A   Overcast
3:35 AM 44.6 °F 39.7 °F 28.4 °F 53% 30.00 in 10.0 mi SSE 9.2 mph - N/A   Overcast
3:55 AM 44.6 °F 38.8 °F 28.4 °F 53% 29.99 in 10.0 mi SSE 11.5 mph - N/A   Overcast
4:15 AM 44.6 °F 38.4 °F 26.6 °F 49% 29.98 in 10.0 mi SSE 12.7 mph 18.4 mph N/A   Overcast
4:35 AM 46.4 °F 40.4 °F 26.6 °F 46% 29.97 in 10.0 mi SSE 13.8 mph 21.9 mph N/A   Overcast
4:55 AM 46.4 °F 39.5 °F 24.8 °F 43% 29.96 in 10.0 mi SSE 17.3 mph 23.0 mph N/A   Overcast
5:15 AM 46.4 °F 39.2 °F 24.8 °F 43% 29.96 in 10.0 mi South 18.4 mph 24.2 mph N/A   Overcast
5:35 AM 48.2 °F - 26.6 °F 43% 29.96 in 10.0 mi South 17.3 mph 25.3 mph N/A   Overcast
5:55 AM 48.2 °F - 26.6 °F 43% 29.96 in 10.0 mi South 19.6 mph 28.8 mph N/A   Overcast
6:15 AM 48.2 °F - 26.6 °F 43% 29.95 in 10.0 mi South 18.4 mph 24.2 mph N/A   Overcast
6:53 AM 48.2 °F - 26.6 °F 43% 29.96 in 15.0 mi South 17.3 mph - N/A   Overcast
7:53 AM 48.2 °F - 28.4 °F 46% 29.95 in 15.0 mi South 17.3 mph - N/A   Mostly Cloudy
8:53 AM 51.8 °F - 28.4 °F 41% 29.94 in 15.0 mi SSW 17.3 mph - N/A   Overcast
9:53 AM 51.8 °F - 28.4 °F 41% 29.93 in 15.0 mi SSW 17.3 mph - N/A   Overcast
10:53 AM 53.6 °F - 32.0 °F 44% 29.92 in 15.0 mi SSW 20.7 mph 28.8 mph N/A   Overcast
11:53 AM 55.4 °F - 33.8 °F 44% 29.90 in 15.0 mi SSW 20.7 mph 28.8 mph N/A   Overcast
12:50 PM 55.4 °F - 33.8 °F 44% 29.88 in 20.0 mi SSW 20.7 mph 29.9 mph N/A   Overcast
1:50 PM 59.0 °F - 35.6 °F 42% 29.84 in 20.0 mi South 18.4 mph 34.5 mph N/A   Overcast
2:50 PM 60.8 °F - 39.2 °F 45% 29.79 in 20.0 mi South 23.0 mph 40.3 mph N/A   Overcast
3:50 PM 62.6 °F - 39.2 °F 42% 29.73 in 20.0 mi South 27.6 mph 39.1 mph N/A   Overcast
4:50 PM 60.8 °F - 41.0 °F 48% 29.76 in 20.0 mi South 19.6 mph 28.8 mph N/A   Overcast
5:50 PM 59.0 °F - 46.4 °F 63% 29.74 in 20.0 mi South 16.1 mph 32.2 mph N/A   Overcast
6:35 PM 59.0 °F - 44.6 °F 59% 29.73 in 10.0 mi South 20.7 mph 34.5 mph N/A Rain Light Rain
6:55 PM 55.4 °F - 50.0 °F 82% 29.75 in 7.0 mi South 26.5 mph 39.1 mph N/A   Drizzle
7:15 PM 53.6 °F - 50.0 °F 88% 29.75 in 10.0 mi South 17.3 mph 20.7 mph N/A   Light Drizzle
7:35 PM 53.6 °F - 50.0 °F 88% 29.75 in 10.0 mi South 19.6 mph - N/A Rain Rain
7:55 PM 53.6 °F - 50.0 °F 88% 29.76 in 10.0 mi South 20.7 mph 26.5 mph N/A   Overcast
8:15 PM 55.4 °F - 50.0 °F 82% 29.76 in 10.0 mi South 24.2 mph 32.2 mph N/A   Overcast
8:35 PM 55.4 °F - 50.0 °F 82% 29.77 in 10.0 mi South 21.9 mph 32.2 mph N/A   Overcast
8:55 PM 55.4 °F - 51.8 °F 88% 29.76 in 10.0 mi South 21.9 mph 32.2 mph N/A   Overcast
9:15 PM 55.4 °F - 50.0 °F 82% 29.77 in 10.0 mi South 26.5 mph 33.4 mph N/A   Overcast
9:35 PM 55.4 °F - 50.0 °F 82% 29.77 in 10.0 mi South 21.9 mph 28.8 mph N/A   Overcast
9:55 PM 55.4 °F - 50.0 °F 82% 29.77 in 10.0 mi South 25.3 mph 31.1 mph N/A   Overcast
10:15 PM 55.4 °F - 50.0 °F 82% 29.77 in 10.0 mi South 25.3 mph - N/A   Overcast
10:35 PM 55.4 °F - 50.0 °F 82% 29.77 in 10.0 mi South 25.3 mph 31.1 mph N/A   Overcast
10:55 PM 55.4 °F - 50.0 °F 82% 29.77 in 10.0 mi South 26.5 mph 33.4 mph N/A   Light Drizzle
11:15 PM 55.4 °F - 51.8 °F 88% 29.76 in 10.0 mi South 24.2 mph 31.1 mph N/A   Overcast
11:35 PM 55.4 °F - 51.8 °F 88% 29.75 in 10.0 mi South 20.7 mph 27.6 mph N/A   Overcast
11:55 PM 55.4 °F - 51.8 °F 88% 29.74 in 10.0 mi South 19.6 mph 25.3 mph N/A   Overcast